Flag for Norway Weather past 2 weeks in Jan Mayen, Jan Mayen, Norway

Now
37 °F

Chilly.


Feels Like: 31 °F
Forecast: 37 / 40 °F
Wind: 8 mph from East

Location: Jan Mayen

Current Time: May 26, 2015 at 1:55:40 AM

Latest Report: May 26, 2015 at 1:00 AM


Visibility: N/A

Pressure: 29.83 "Hg

Humidity: 89%

Dew point: 35 °F

Location of Jan MayenLocation

Historic Weather in Jan Mayen — Graph

°F

Jan Mayen temperature yesterday

Maximum temperature yesterday: 40 °F (at 3:00 PM)
Minimum temperature yesterday: 36 °F (at 10:00 PM)
Average temperature yesterday: 38 °F

Past Weeks' High & Low Weather Summary

 TemperatureHumidityPressure
High43 °F (May 18, 5:00 PM)95% (May 21, 3:00 AM)30.13 "Hg (May 21, 3:00 AM)
Low24 °F (May 13, 4:00 AM)69% (May 14, 12:00 PM)29.66 "Hg (May 22, 1:00 AM)
Average33 °F84%29.85 "Hg
* Reported Midnight between May 10 and May 11 — Midnight between May 25 and May 26, Jan Mayen, Weather by CustomWeather, © 2015

Note: Actual official high and low records may vary slightly from our data, if they occured in-between our weather recording intervals... More about our weather records

Advertising

Jan Mayen weather history for previous 24 hours

 ConditionsComfort  
Time TempWeatherWind HumidityBarometerVisibility
12:00 AM
Tue, May 26
36 °FChilly.7 mph92%29.85 "HgN/A
10:00 PM
Mon, May 25
36 °FChilly.8 mph93%29.87 "HgN/A
9:00 PM37 °FChilly.8 mph92%29.88 "HgN/A
8:00 PM37 °FRain. Low clouds.8 mph93%29.88 "Hg4 mi
7:00 PM38 °FChilly.6 mph93%29.88 "HgN/A
6:00 PM39 °FChilly.5 mph89%29.90 "HgN/A
5:00 PM40 °FOvercast.6 mph85%29.90 "Hg9 mi
4:00 PM40 °FQuite cool.3 mph84%29.91 "HgN/A
3:00 PM40 °FQuite cool.6 mph83%29.92 "HgN/A
2:00 PM40 °FOvercast.3 mph84%29.92 "Hg9 mi
1:00 PM39 °FChilly.3 mph84%29.93 "HgN/A
12:00 PM38 °FChilly.3 mph88%29.93 "HgN/A
11:00 AM38 °FOvercast.8 mph84%29.93 "Hg12 mi
10:00 AM38 °FChilly.6 mph84%29.93 "HgN/A
9:00 AM38 °FChilly.6 mph83%29.92 "HgN/A
8:00 AM38 °FOvercast.3 mph83%29.90 "Hg9 mi
7:00 AM38 °FChilly.8 mph80%29.89 "HgN/A
6:00 AM37 °FChilly.6 mph82%29.89 "HgN/A
5:00 AM37 °FChilly.6 mph83%29.88 "HgN/A
4:00 AM37 °FChilly.8 mph82%29.87 "HgN/A
3:00 AM37 °FChilly.7 mph82%29.86 "HgN/A
2:00 AM37 °FOvercast.8 mph84%29.85 "Hg9 mi
1:00 AM37 °FChilly.7 mph85%29.83 "HgN/A
Weather by CustomWeather, © 2015

See weather overviewHow to use our weather pages